Vertical_Velocity
4 -10 2 5 2 -1 -1 1 3 1 -1 -1 -5 0 -1 -3 -1 -4 -0 -5 -3 1 -15 5 2 1 -2 -1 0 -0 -5 3 3 1 -0 -2 1 -3 0 -3 -5 -5 -2 -1 2 2 -8 -1 1 -2 -5 3 -1 0
-6 -2 4 4 2 -2 -3 3 2 5 1 -1 -2 1 -2 -5 1 5 -2 -1 5 14 -19 -4 8 9 0 1 7 2 -1 -0 -0 1 0 0 1 0 -3 -2 2 -4 -10 -7 -11 -12 -3 -2 -2 1 0 -3 -1 -1
3 -0 3 1 0 -4 -2 -1 -4 1 4 -4 -3 0 2 -3 -1 2 -1 -2 2 -1 -22 10 -5 -8 -1 -4 16 4 3 1 3 6 3 -2 -0 -3 -2 -4 1 -0 -0 -1 -2 -4 -2 -2 1 -1 -1 -1 -1 1
-3 0 2 0 -4 -2 2 3 -0 -2 -4 2 3 3 3 -2 -2 5 -2 6 4 4 7 -15 -0 -8 0 4 7 -5 -1 1 11 -0 -2 -0 -0 -1 -2 -5 -3 -8 -2 -3 -3 -3 0 2 1 -2 -2 -1 -2 0
-2 0 -1 -4 0 2 4 4 2 -3 0 -3 0 9 4 5 -1 -1 -3 1 2 6 2 -10 -13 -2 -4 -4 -4 2 9 6 1 -2 2 -1 0 -1 -0 -2 -0 -2 -5 -4 -7 -3 -1 -2 -1 5 1 -2 -1 0
3 1 -0 0 -2 3 5 2 2 -4 -5 1 -4 23 9 3 1 -6 -6 -1 3 -4 4 -0 4 -21 4 7 5 4 4 11 -1 -4 -2 -5 2 -1 -1 -0 -5 -3 3 3 -7 -2 -2 -1 2 0 -0 -1 -1 -1
-2 -1 -1 0 -1 -1 -1 -0 -1 -6 -4 1 -5 17 8 2 -0 -5 -10 -6 -1 8 -2 -5 -5 -1 1 8 3 6 12 -2 -5 -3 0 -2 -5 7 0 -0 -3 0 0 -4 -1 -0 1 -0 -3 0 1 -1 -1 -1
-6 -3 -1 2 0 -1 2 -4 -5 -4 0 3 10 4 17 12 5 -7 7 15 -3 -0 -2 2 -8 1 3 2 -1 1 0 4 6 -2 2 2 0 2 0 -6 -1 3 3 5 2 2 -1 -3 -1 1 2 2 1 -1
1 0 -1 -1 -2 1 -2 -3 -4 -1 6 1 21 26 1 2 -6 -4 -3 4 3 -5 1 3 0 -5 1 -0 4 3 0 2 -1 0 -0 4 -1 -2 -7 -2 -1 -1 -2 -3 2 1 -1 1 -0 -1 -2 -0 -1 -0
-0 -3 1 -1 -1 -0 -1 -6 -5 -1 3 12 11 -4 -4 -3 -5 -4 4 8 6 5 1 1 -0 -3 3 1 1 2 1 -0 1 -7 3 2 -3 -4 3 1 1 -1 -1 1 -2 1 0 -1 0 -0 -1 -0 -0 -1
-0 -2 1 -4 -1 -9 -8 -0 7 10 -9 4 -1 -0 8 -0 0 3 1 3 2 2 0 -4 -1 -1 -3 3 -1 -3 -1 -1 1 5 -0 -0 -1 -0 2 1 2 2 2 1 0 1 -3 -2 -0 0 -0 -1 -1 -2
1 4 -4 2 -3 -3 -8 4 -0 -5 -4 -5 3 9 3 0 2 3 -1 2 3 -4 1 0 -6 -5 -4 2 3 1 0 -1 1 0 1 -0 -2 -0 -0 1 -0 1 1 -1 0 1 -1 -1 -1 -0 -2 -1 -1 0
4 0 -3 3 -4 1 -2 16 4 -1 -1 -1 -0 -2 1 1 5 3 -1 1 2 -1 -1 1 -0 5 2 3 1 -0 1 1 -1 0 -2 -3 1 2 0 0 0 0 1 1 -1 -1 -0 1 0 1 1 -0 1 0
5 -1 -1 -4 1 6 4 9 -2 0 -1 -2 -2 2 1 0 -1 -3 -1 0 0 -1 -1 2 0 2 -0 1 0 -1 2 -1 1 1 -4 -2 -1 -1 0 -0 -2 -2 -0 -1 -1 -0 -0 0 -1 -3 -1 1 0 -0
0 4 -1 -8 7 6 -1 -0 8 14 -1 -4 1 -3 0 -7 -1 -0 -1 -2 -2 1 1 1 0 2 -1 0 0 -1 -0 -0 -1 -3 -2 -1 -1 -0 -1 -1 -1 -2 -1 -4 -1 0 1 0 0 0 0 -0 -0 0
1 14 -9 4 4 6 8 1 7 3 -2 -2 1 2 -0 1 -2 0 -0 -1 -3 1 -2 3 0 1 -0 0 -1 -1 -1 -1 -4 -1 1 1 0 0 -0 0 -0 -2 -0 0 -0 0 0 0 0 -0 -0 0 -0 -0
8 8 -0 1 -4 4 4 13 -3 -3 -1 3 -1 -0 -0 1 -2 -2 1 -1 1 1 -0 1 2 -2 -0 -0 -0 -0 -2 -3 -1 0 1 1 1 1 -0 0 1 0 -0 -0 -0 -0 0 -0 -0 -0 0 -0 -0 -0
6 10 1 5 1 12 3 -2 -5 1 -1 -0 0 -1 -2 2 -0 -3 -1 -2 3 1 1 -1 2 0 -1 -0 -1 -1 -0 0 0 -0 1 1 0 -1 -1 -2 -2 -1 1 1 1 0 -0 -0 -0 -0 0 0 -0 -1
6 10 16 5 5 -14 -3 -3 0 -3 -2 1 2 -1 0 0 0 -1 -1 -1 -0 3 1 1 2 -1 -1 -0 -0 -1 1 1 0 0 0 0 0 1 1 1 1 0 -0 -1 -1 -1 -0 -0 -1 -0 -1 -1 -1 -1
7 11 9 4 11 -12 -4 -1 0 2 -1 2 1 -0 -0 2 1 -1 -0 -1 1 1 2 0 -1 -1 -2 -2 -3 -4 -1 -0 -0 -1 -0 -0 -0 -0 0 1 2 1 -0 -0 0 -0 -0 -1 -1 -1 -1 -1 -0 -0
8 7 3 3 -10 -5 -3 0 -2 1 -1 -2 1 -1 1 -2 -1 -0 1 0 2 -1 -1 -1 -3 1 3 1 0 0 -0 -0 0 0 -1 -1 -0 -0 -0 1 1 -0 -0 1 0 -0 -1 -0 0 0 -0 -1 -1 -1
3 1 -2 -1 -2 -1 -3 -2 2 0 -1 1 -2 -0 1 0 -0 0 -1 0 -1 -4 0 -2 -1 2 2 1 -0 0 1 1 0 -0 0 -0 -1 -0 -1 2 -0 -0 1 2 -0 -0 -0 -0 -0 0 0 -0 -1 -1
0 -4 -6 -4 -4 -1 1 -0 -2 -1 -0 0 1 0 -1 -0 -1 1 -1 -1 -3 -1 -0 -3 -1 2 -1 -2 1 1 -1 -0 0 1 1 -0 -0 -1 -1 0 1 -1 -0 0 0 -0 -0 1 1 0 -0 -0 -0 1
-5 -10 -3 -2 -1 0 0 -1 1 0 1 -0 -1 -0 -1 -1 2 0 -1 -1 -3 1 0 0 -0 0 0 -1 -2 -1 -0 0 0 -0 1 1 0 1 0 1 -0 0 1 0 -1 0 -0 1 0 0 -0 -0 -0 -0
-6 -0 -1 0 1 -2 -0 -0 -0 -1 -0 -0 -1 -1 -3 -0 -1 0 -1 -4 -1 1 1 -2 -7 -8 -2 1 0 -2 -3 -2 -1 -2 0 -2 -2 -1 -1 -0 -0 1 0 -1 -1 0 0 -0 -0 -1 -1 -1 -1 -1
-3 -0 -3 -1 -0 -2 -1 -1 -1 -2 -1 0 -2 0 0 -2 -1 -3 -3 -2 -2 0 -0 -0 -0 -0 -1 -0 -1 -1 1 1 -0 -1 -0 -1 -1 -1 -1 -2 -2 -1 -0 0 -0 -2 -0 0 -1 -0 -0 1 -0 -2
-1 0 -1 1 0 -1 -1 1 1 -2 -0 -1 -1 -1 -2 -1 -2 -7 0 0 -1 1 1 0 -1 -1 -1 -1 -1 0 -1 -1 -0 -1 -2 -2 -2 -2 -2 -2 -4 2 -1 -1 -1 -1 -0 0 -0 -0 -1 -0 0 -0
-1 0 -3 0 -0 0 -2 -0 -0 -1 -1 1 -0 -2 -3 -6 -7 -0 -1 0 2 3 1 -1 -3 -3 -3 1 1 1 2 2 1 0 0 0 2 2 1 1 1 2 1 1 1 1 1 2 0 -0 -1 -1 1 0
-1 0 -0 -1 0 0 -1 -2 -2 -0 0 -0 -2 -1 -3 -1 1 1 -1 -0 -0 -1 -4 -3 -1 7 0 0 1 2 1 -1 -1 -3 -2 -6 -2 2 4 -1 0 0 1 2 1 3 2 2 2 1 0 -1 1 2
0 -0 -1 0 -1 -1 -0 0 1 1 1 -0 -1 -2 -6 -16 -12 1 -4 -4 -6 -8 -5 1 -0 -0 -4 2 -3 3 7 3 1 1 -3 -2 -2 -1 1 1 1 1 1 2 3 2 1 0 2 -1 -3 -1 -1 -1
0 0 -1 -0 -1 0 -0 -0 0 0 1 -2 1 -1 -6 -7 -20 -11 -6 -3 -0 1 1 -2 -0 5 2 1 4 1 -6 3 -1 -0 -1 -2 -1 -0 -1 -1 -0 1 0 1 2 3 2 0 1 1 1 0 1 -0
1 -1 -1 -1 -1 -0 -0 -1 -1 -1 -0 -1 -3 2 0 -0 -5 -4 -1 -5 -5 -4 -1 5 1 -3 7 2 -0 1 0 1 1 -1 -2 -2 0 2 1 0 0 0 1 1 1 1 -0 0 1 0 -1 -1 0 0
-1 -0 -0 -1 -1 -1 -1 -0 0 -1 1 -1 -1 1 1 -1 -6 -1 -3 -3 -1 -1 -1 -0 0 0 0 1 1 0 -1 -1 -0 2 2 0 -0 0 1 1 0 1 0 -0 -0 0 -1 -1 -1 -0 -0 -1 -0 -0
Height
1487 1490 1493 1495 1497 1498 1499 1501 1502 1501 1500 1500 1500 1498 1498 1497 1496 1496 1497 1496 1498 1493 1483 1479 1477 1477 1478 1477 1475 1466 1466 1462 1462 1463 1465 1462 1461 1454 1456 1456 1462 1465 1463 1473 1476 1472 1473 1446 1449 1451 1447 1446 1446 1447
1482 1487 1489 1492 1494 1496 1497 1498 1499 1498 1497 1498 1497 1495 1494 1495 1494 1493 1492 1493 1492 1490 1481 1479 1474 1473 1470 1472 1474 1469 1463 1464 1456 1455 1455 1454 1456 1456 1457 1458 1451 1460 1454 1457 1460 1457 1445 1445 1445 1444 1445 1446 1447 1448
1479 1484 1487 1489 1491 1493 1493 1493 1494 1495 1495 1494 1494 1492 1491 1490 1490 1490 1488 1489 1488 1484 1473 1469 1467 1466 1465 1462 1462 1468 1461 1459 1457 1460 1453 1448 1447 1448 1455 1452 1444 1445 1445 1449 1449 1442 1442 1442 1444 1444 1445 1446 1447 1447
1477 1482 1484 1485 1488 1489 1488 1487 1487 1488 1490 1490 1490 1488 1487 1485 1486 1486 1486 1484 1485 1483 1472 1460 1459 1458 1459 1458 1455 1454 1455 1457 1457 1456 1462 1444 1444 1440 1445 1442 1442 1442 1442 1444 1445 1440 1440 1440 1440 1442 1444 1445 1446 1448
1474 1477 1479 1481 1483 1483 1483 1482 1481 1482 1482 1483 1484 1484 1483 1481 1482 1481 1482 1481 1480 1484 1473 1457 1451 1444 1444 1445 1449 1448 1452 1453 1456 1459 1458 1441 1437 1438 1439 1440 1442 1436 1438 1443 1444 1437 1437 1437 1437 1439 1441 1443 1445 1446
1469 1472 1474 1476 1478 1478 1476 1474 1475 1475 1476 1477 1478 1477 1477 1475 1475 1477 1477 1476 1475 1475 1472 1461 1446 1440 1442 1441 1442 1441 1446 1449 1452 1456 1454 1446 1433 1434 1439 1441 1430 1430 1432 1433 1434 1436 1436 1437 1438 1439 1440 1442 1443 1444
1464 1468 1469 1470 1470 1470 1469 1469 1469 1469 1470 1470 1471 1471 1472 1472 1471 1472 1472 1474 1477 1479 1477 1465 1447 1438 1438 1437 1435 1436 1442 1444 1448 1450 1449 1448 1439 1433 1435 1434 1427 1427 1428 1429 1431 1433 1435 1436 1437 1438 1439 1439 1440 1441
1459 1462 1462 1463 1464 1463 1463 1463 1462 1463 1464 1465 1467 1467 1466 1466 1468 1469 1469 1468 1471 1475 1476 1470 1453 1440 1435 1434 1434 1435 1439 1442 1442 1442 1441 1439 1434 1428 1429 1424 1422 1424 1426 1426 1427 1429 1430 1433 1435 1437 1437 1437 1437 1438
1453 1454 1455 1456 1456 1456 1455 1456 1456 1458 1459 1462 1465 1462 1464 1464 1464 1464 1465 1467 1463 1472 1468 1463 1459 1447 1432 1429 1431 1434 1435 1436 1435 1433 1432 1438 1423 1420 1417 1417 1419 1421 1422 1423 1425 1427 1429 1431 1433 1434 1435 1435 1434 1434
1446 1448 1449 1449 1450 1449 1449 1450 1450 1453 1455 1457 1458 1461 1459 1459 1460 1462 1461 1462 1461 1460 1460 1452 1449 1443 1435 1427 1427 1428 1427 1423 1423 1423 1425 1426 1418 1412 1413 1414 1415 1418 1420 1421 1423 1425 1426 1428 1430 1430 1431 1432 1431 1431
1439 1442 1441 1442 1443 1443 1445 1446 1448 1450 1451 1455 1457 1456 1455 1455 1459 1459 1459 1459 1454 1453 1448 1439 1440 1438 1429 1424 1422 1424 1418 1415 1409 1415 1419 1417 1413 1409 1410 1411 1413 1415 1417 1419 1421 1422 1423 1425 1427 1427 1427 1427 1427 1427
1434 1434 1434 1435 1436 1437 1439 1442 1444 1446 1448 1454 1456 1454 1455 1455 1459 1462 1458 1454 1450 1441 1435 1431 1428 1427 1423 1419 1419 1417 1414 1415 1412 1415 1416 1413 1408 1409 1410 1411 1413 1415 1415 1417 1419 1419 1420 1422 1423 1423 1424 1424 1424 1423
1427 1427 1427 1428 1430 1433 1435 1439 1441 1444 1447 1450 1453 1452 1454 1454 1451 1450 1456 1442 1437 1432 1428 1425 1424 1421 1418 1417 1416 1416 1414 1415 1416 1415 1414 1410 1408 1409 1410 1411 1412 1414 1415 1416 1417 1418 1419 1420 1420 1421 1421 1421 1420 1419
1419 1419 1420 1421 1424 1429 1431 1433 1437 1441 1446 1450 1451 1449 1452 1450 1444 1434 1436 1433 1431 1428 1427 1424 1422 1421 1417 1415 1415 1416 1416 1416 1417 1415 1413 1408 1406 1408 1410 1412 1413 1414 1415 1416 1417 1417 1418 1418 1419 1419 1420 1420 1419 1418
1409 1411 1412 1414 1416 1421 1427 1429 1433 1435 1441 1443 1445 1445 1441 1435 1437 1434 1433 1433 1430 1428 1427 1424 1422 1421 1417 1416 1415 1417 1418 1417 1413 1411 1409 1406 1406 1408 1410 1412 1414 1415 1416 1417 1418 1419 1420 1420 1420 1420 1419 1419 1418 1417
1399 1402 1402 1406 1410 1416 1421 1422 1428 1434 1437 1438 1438 1436 1431 1434 1433 1432 1431 1430 1429 1427 1425 1423 1421 1418 1415 1416 1418 1417 1418 1414 1414 1410 1408 1407 1408 1409 1411 1413 1415 1416 1418 1419 1419 1420 1420 1419 1419 1418 1418 1417 1416 1415
1388 1388 1391 1398 1403 1409 1413 1416 1426 1431 1435 1431 1429 1431 1430 1429 1429 1431 1430 1429 1428 1427 1424 1421 1419 1416 1418 1418 1418 1416 1416 1415 1412 1410 1409 1409 1409 1410 1412 1414 1415 1417 1418 1418 1419 1419 1419 1418 1417 1417 1417 1415 1414 1413
1378 1378 1384 1392 1395 1402 1408 1413 1420 1423 1427 1424 1422 1422 1427 1426 1426 1429 1428 1428 1427 1425 1423 1421 1419 1418 1416 1416 1416 1416 1413 1412 1411 1411 1410 1410 1410 1411 1413 1414 1415 1417 1418 1418 1418 1418 1417 1417 1416 1415 1415 1414 1413 1412
1376 1378 1383 1386 1393 1400 1408 1416 1419 1419 1421 1422 1420 1419 1423 1424 1425 1425 1426 1426 1425 1424 1422 1420 1416 1419 1415 1413 1414 1415 1414 1413 1412 1411 1411 1411 1411 1412 1413 1414 1415 1416 1417 1417 1417 1417 1416 1415 1415 1414 1413 1413 1412 1411
1379 1381 1382 1389 1394 1399 1407 1414 1417 1419 1418 1420 1419 1420 1422 1423 1423 1422 1423 1424 1424 1423 1420 1418 1414 1411 1412 1412 1412 1413 1413 1412 1412 1411 1411 1411 1411 1412 1412 1413 1415 1415 1415 1415 1415 1415 1414 1413 1413 1412 1412 1411 1410 1409
1380 1382 1386 1391 1395 1400 1406 1410 1415 1418 1417 1419 1419 1420 1421 1421 1421 1421 1422 1422 1422 1418 1413 1410 1410 1410 1410 1411 1411 1411 1411 1411 1411 1410 1410 1410 1410 1410 1410 1411 1411 1412 1412 1412 1412 1412 1411 1411 1411 1410 1409 1409 1408 1407
1380 1385 1391 1396 1398 1402 1406 1410 1414 1415 1418 1418 1419 1420 1420 1420 1419 1420 1420 1419 1415 1409 1408 1408 1408 1408 1408 1409 1409 1408 1407 1407 1407 1406 1407 1407 1407 1407 1407 1407 1407 1407 1408 1408 1408 1408 1408 1408 1408 1407 1407 1406 1405 1405
1386 1392 1397 1400 1404 1406 1411 1411 1413 1415 1417 1418 1419 1420 1419 1418 1418 1418 1416 1413 1408 1405 1405 1405 1405 1405 1404 1404 1403 1402 1401 1400 1400 1401 1401 1402 1402 1402 1402 1403 1403 1403 1403 1404 1404 1404 1405 1405 1404 1404 1404 1403 1402 1401
1393 1397 1400 1402 1404 1408 1411 1412 1413 1414 1415 1416 1420 1421 1418 1416 1416 1416 1415 1408 1403 1402 1401 1401 1402 1402 1401 1400 1398 1397 1396 1395 1395 1396 1396 1396 1396 1397 1397 1398 1398 1399 1400 1400 1400 1400 1400 1401 1401 1401 1400 1399 1398 1397
1397 1401 1402 1403 1404 1408 1411 1413 1414 1415 1417 1419 1421 1419 1416 1415 1418 1417 1411 1403 1400 1400 1401 1401 1401 1401 1400 1399 1397 1396 1395 1394 1393 1392 1392 1391 1392 1392 1393 1394 1394 1395 1395 1395 1395 1396 1396 1397 1397 1397 1396 1395 1393 1392
1396 1400 1401 1401 1403 1404 1407 1411 1414 1415 1416 1418 1416 1414 1414 1415 1418 1412 1402 1396 1398 1399 1399 1399 1399 1400 1399 1398 1397 1396 1395 1394 1393 1391 1390 1389 1389 1389 1389 1389 1390 1391 1391 1391 1391 1392 1392 1393 1393 1392 1391 1390 1388 1386
1397 1399 1399 1399 1399 1400 1403 1405 1406 1408 1414 1414 1412 1414 1417 1418 1417 1399 1394 1395 1396 1397 1398 1398 1398 1398 1397 1396 1395 1394 1393 1392 1390 1390 1389 1388 1387 1387 1386 1386 1385 1387 1386 1387 1387 1387 1388 1388 1387 1387 1386 1385 1384 1382
1395 1396 1397 1399 1399 1400 1402 1405 1407 1408 1406 1405 1407 1413 1414 1409 1403 1395 1394 1395 1396 1396 1396 1395 1395 1394 1393 1392 1391 1389 1388 1387 1386 1385 1384 1383 1383 1382 1382 1381 1381 1381 1381 1381 1381 1381 1381 1381 1381 1380 1380 1378 1377 1375
1394 1396 1398 1399 1400 1400 1400 1401 1402 1402 1403 1403 1405 1404 1399 1396 1396 1395 1395 1396 1395 1393 1391 1389 1389 1388 1386 1385 1385 1384 1382 1381 1380 1378 1377 1375 1376 1378 1377 1375 1374 1374 1375 1375 1375 1375 1375 1374 1374 1373 1372 1371 1370 1368
1395 1396 1396 1398 1399 1401 1400 1401 1401 1401 1401 1402 1401 1399 1396 1393 1391 1391 1389 1387 1385 1383 1381 1380 1378 1377 1376 1376 1376 1376 1375 1374 1373 1372 1369 1368 1368 1368 1368 1367 1367 1367 1367 1367 1367 1367 1367 1367 1366 1365 1364 1364 1362 1360
1395 1396 1396 1398 1399 1400 1400 1400 1399 1398 1398 1397 1395 1393 1389 1385 1379 1377 1375 1374 1373 1371 1369 1367 1368 1368 1368 1368 1367 1366 1365 1367 1365 1364 1363 1361 1360 1360 1360 1360 1360 1360 1360 1360 1360 1361 1360 1360 1360 1359 1358 1357 1356 1354
1396 1397 1398 1400 1399 1400 1399 1398 1397 1395 1393 1391 1389 1385 1382 1381 1376 1368 1365 1365 1364 1362 1361 1361 1360 1360 1361 1359 1359 1358 1357 1357 1356 1356 1355 1354 1353 1353 1352 1353 1353 1353 1353 1354 1354 1354 1354 1354 1353 1352 1351 1350 1349 1348
1398 1398 1399 1399 1398 1398 1398 1397 1395 1392 1390 1386 1381 1379 1377 1378 1372 1363 1361 1360 1359 1358 1356 1355 1354 1353 1352 1351 1350 1349 1349 1348 1347 1346 1346 1346 1346 1346 1346 1347 1347 1348 1348 1349 1349 1349 1348 1348 1348 1347 1346 1346 1345 1344